Regional Weather Roundup
Issued by NWS

Home | Current Version | Previous Version | Text Only | Print | Product List | Glossary Off
Versions: 1 2 3 4 5 6 7 8 9 10 11 12 13 14 15 16 17 18 19 20 21 22 23 24 25 26 27 28 29 30 31 32 33 34 35 36 37 38 39 40 41 42 43 44 45 46 47 48 49 50

000
ASUS45 KABQ 211001
RWRNM
WEATHER ROUNDUP FOR NEW MEXICO
NATIONAL WEATHER SERVICE ALBUQUERQUE NM
400 AM MDT SUN SEP 21 2014

NOTE: "FAIR" MEANS FEW OR NO CLOUDS BELOW 12,000 FEET AGL WITH NO
       SIGNIFICANT WEATHER OR OBSTRUCTIONS TO VISION.

      THIS PRODUCT IS RELEASED AS TWO VERSIONS.  ONE VERSION NEAR
      THE TOP OF THE HOUR CONTAINING PRELIMINARY DATA FROM ALBUQUERQUE
      AND OTHER STATIONS.  A FINAL VERSION WITH ADDITIONAL DATA IS
      ISSUED ABOUT 10 MINUTES AFTER THE HOUR.

NMZ501-503-504-510>518-211100-
NORTHWEST PLATEAU/NORTHCENTRAL MOUNTAINS

CITY           SKY/WX    TMP DP  RH WIND       PRES   REMARKS
FARMINGTON     CLOUDY    71  47  42 E6        30.22R
LOS ALAMOS     CLEAR     60  54  79 SW10      30.37S
SANTA FE       CLEAR     60  51  72 S9        30.31R
TAOS           CLEAR     63  46  55 SE10      30.37R
ANGEL FIRE     FAIR      42  39  87 CALM      30.48S

$$
NMZ402-403-502-505>509-211100-
WESTCENTRAL MOUNTAINS/SOUTHWEST MOUNTAINS

CITY           SKY/WX    TMP DP  RH WIND       PRES   REMARKS
GALLUP         PTCLDY    53  41  63 CALM      30.28S
GRANTS         MOCLDY    54  46  76 CALM      30.31S
SILVER CITY    MOCLDY    66  63  88 SE6       30.21S

$$
NMZ407-409-411-412-211100-
SOUTHERN DESERTS

CITY           SKY/WX    TMP DP  RH WIND       PRES   REMARKS
LORDSBURG      FAIR      68  64  88 MISG      30.10S
DEMING         MOCLDY    70  64  81 NE8       30.12R
LAS CRUCES     CLOUDY    70  63  77 SE6       30.14S
HOLLOMAN AFB   PTCLDY    65  62  89 E3        30.11S
ALAMOGORDO     PTCLDY    66  61  82 N5        30.13S
T OR C         CLOUDY    66  63  90 NW9       30.17R

$$
NMZ519>523-211100-
CENTRAL VALLEYS/CENTRAL HIGHLANDS

CITY           SKY/WX    TMP DP  RH WIND       PRES   REMARKS
ALBUQUERQUE    PTCLDY    68  57  68 E12       30.24R
DOUBLE EAGLE   CLEAR     64  56  74 E9        30.27S
CLINES CORNERS MOCLDY    59  57  93 E10       30.35R
BELEN          FAIR      66  56  70 SE5       30.22S
SOCORRO        FAIR      69  59  68 CALM      30.19S

$$
NMZ524>526-539-540-211100-
SOUTHCENTRAL MOUNTAINS

CITY           SKY/WX    TMP DP  RH WIND       PRES   REMARKS
RUIDOSO        NOT AVBL

$$
NMZ527>531-211100-
NORTHEAST HIGHLANDS/NORTHEAST PLAINS

CITY           SKY/WX    TMP DP  RH WIND       PRES   REMARKS
LAS VEGAS      PTCLDY    53  48  83 N6        30.37S
RATON          CLOUDY    62  55  77 NE7       30.36R
CLAYTON        CLEAR     61  58  90 N9        30.28R

$$
NMZ532>537-211100-
EASTCENTRAL PLAINS

CITY           SKY/WX    TMP DP  RH WIND       PRES   REMARKS
TUCUMCARI      PTCLDY    64  59  83 CALM      30.20R
CANNON AFB     MOCLDY    66 N/A N/A SE7       30.21R
CLOVIS AIRPORT   N/A     66  64  94 E3        30.23R

$$
NMZ028-029-538-211100-
SOUTHEAST PLAINS

CITY           SKY/WX    TMP DP  RH WIND       PRES   REMARKS
ROSWELL        RAIN      70  68  93 CALM      30.13S FOG
CARLSBAD       CLOUDY    71  32  23 NE5       30.09R
HOBBS          CLOUDY    68  68 100 E7        30.14S FOG


$$


USA.gov is the U.S. government's official web portal to all federal, state and local government web resources and services.